CW1575 Weather Reports


Display with metric or nautical units.
time (UTC)temp
F
wind
direction
speed
MPH
gust
MPH
rain 1hr
in
rain 24hr
in
rain mn
in
humidity
%
barometer
mb
20160625065004 67 265 0.0 0.0 0.00 0.00 0.00 55 1017.0
20160625064504 67 265 0.0 0.0 0.00 0.00 0.00 55 1017.0
20160625064004 67 265 0.0 0.0 0.00 0.00 0.00 56 1017.0
20160625063504 67 265 0.0 1.0 0.00 0.00 0.00 56 1017.2
20160625063005 68 265 0.0 1.0 0.00 0.00 0.00 57 1017.2
20160625062505 67 265 0.0 2.0 0.00 0.00 0.00 57 1017.2
20160625062005 68 265 0.0 1.0 0.00 0.00 0.00 58 1017.2
20160625061504 67 265 0.0 0.0 0.00 0.00 0.00 57 1017.2
20160625061005 67 265 0.0 0.0 0.00 0.00 0.00 57 1017.2
20160625060504 67 265 0.0 0.0 0.00 0.00 0.00 57 1017.2
20160625060004 67 271 0.0 1.0 0.00 0.00 0.00 57 1017.1
20160625055504 67 305 0.0 1.0 0.00 0.00 0.00 56 1017.5
20160625055005 67 305 0.0 2.0 0.00 0.00 0.00 57 1017.4
20160625054505 67 305 0.0 1.0 0.00 0.00 0.00 56 1017.3
20160625054005 67 305 0.0 1.0 0.00 0.00 0.00 56 1017.5
20160625053504 68 305 0.0 1.0 0.00 0.00 0.00 56 1017.4
20160625053005 68 307 0.0 5.0 0.00 0.00 0.00 56 1017.4
20160625052504 68 309 2.0 3.0 0.00 0.00 0.00 56 1017.4
20160625052004 68 311 1.0 3.0 0.00 0.00 0.00 55 1017.4
20160625051504 68 319 0.0 1.0 0.00 0.00 0.00 55 1017.4
20160625051004 69 319 0.0 2.0 0.00 0.00 0.00 55 1017.4
20160625050505 69 323 0.0 3.0 0.00 0.00 0.00 55 1017.8
20160625050005 69 327 0.0 0.0 0.00 0.00 0.00 55 1017.8
20160625045505 70 327 0.0 0.0 0.00 0.00 0.00 55 1017.8
20160625045005 70 327 0.0 0.0 0.00 0.00 0.00 54 1017.8
20160625044504 70 327 0.0 0.0 0.00 0.00 0.00 54 1017.7
20160625044004 71 327 0.0 0.0 0.00 0.00 0.00 53 1017.9
20160625043504 71 327 0.0 0.0 0.00 0.00 0.00 53 1017.9
20160625043004 71 327 0.0 0.0 0.00 0.00 0.00 53 1017.8
20160625042504 71 327 0.0 2.0 0.00 0.00 0.00 53 1017.7
20160625042004 72 327 1.0 2.0 0.00 0.00 0.00 52 1017.6
20160625041504 72 327 0.0 0.0 0.00 0.00 0.00 50 1017.6
20160625041004 72 327 0.0 0.0 0.00 0.00 0.00 49 1017.5
20160625040505 72 327 0.0 0.0 0.00 0.00 0.00 48 1017.6
20160625040005 73 327 0.0 0.0 0.00 0.00 0.00 48 1017.4
20160625035505 73 327 0.0 1.0 0.00 0.00 0.00 47 1017.2
20160625035005 73 327 0.0 1.0 0.00 0.00 0.00 46 1017.2
20160625034504 74 327 0.0 0.0 0.00 0.00 0.00 45 1017.1
20160625034004 74 327 0.0 0.0 0.00 0.00 0.00 45 1017.1
20160625033504 74 327 0.0 0.0 0.00 0.00 0.00 44 1017.2
20160625033004 74 327 0.0 0.0 0.00 0.00 0.00 44 1017.1
20160625032504 75 327 0.0 2.0 0.00 0.00 0.00 43 1017.0
20160625032004 75 349 1.0 3.0 0.00 0.00 0.00 42 1016.9
20160625031504 75 323 0.0 2.0 0.00 0.00 0.00 42 1016.8
20160625031005 75 323 0.0 1.0 0.00 0.00 0.00 42 1016.8
20160625030505 75 323 0.0 3.0 0.00 0.00 0.00 41 1016.8
20160625030004 76 316 2.0 3.0 0.00 0.00 0.00 41 1016.8
20160625025504 76 341 2.0 3.0 0.00 0.00 0.00 41 1016.6
20160625025005 77 320 2.0 3.0 0.00 0.00 0.00 41 1016.6
20160625024505 77 273 0.0 0.0 0.00 0.00 0.00 41 1016.6
20160625024005 77 273 0.0 0.0 0.00 0.00 0.00 41 1016.7
20160625023505 77 273 0.0 1.0 0.00 0.00 0.00 40 1016.7
20160625023005 77 273 0.0 1.0 0.00 0.00 0.00 40 1016.9
20160625022504 77 273 0.0 0.0 0.00 0.00 0.00 40 1016.7
20160625022004 78 273 0.0 0.0 0.00 0.00 0.00 40 1016.7
20160625021504 78 273 0.0 1.0 0.00 0.00 0.00 38 1016.7
20160625021005 78 273 0.0 1.0 0.00 0.00 0.00 38 1016.7
20160625020504 78 338 0.0 0.0 0.00 0.00 0.00 38 1016.7
20160625020005 78 338 0.0 2.0 0.00 0.00 0.00 39 1016.9
20160625015504 78 338 0.0 0.0 0.00 0.00 0.00 40 1016.8
20160625015004 78 338 0.0 0.0 0.00 0.00 0.00 39 1016.7
20160625014505 78 338 0.0 0.0 0.00 0.00 0.00 40 1016.7
20160625014004 79 240 0.0 0.0 0.00 0.00 0.00 39 1016.7
20160625013504 79 240 0.0 2.0 0.00 0.00 0.00 38 1016.6
20160625013005 79 240 1.0 3.0 0.00 0.00 0.00 37 1016.7
20160625012505 79 240 1.0 3.0 0.00 0.00 0.00 36 1016.6
20160625012005 79 188 1.0 3.0 0.00 0.00 0.00 37 1016.6
20160625011504 79 185 0.0 3.0 0.00 0.00 0.00 38 1016.8
20160625011004 79 195 1.0 2.0 0.00 0.00 0.00 38 1016.8
20160625010504 79 195 0.0 2.0 0.00 0.00 0.00 37 1016.8
20160625010005 80 195 0.0 2.0 0.00 0.00 0.00 37 1016.9
20160625005504 80 195 0.0 0.0 0.00 0.00 0.00 38 1016.6
20160625005004 80 195 0.0 1.0 0.00 0.00 0.00 37 1016.6
20160625004504 80 195 0.0 2.0 0.00 0.00 0.00 36 1016.5
20160625004005 80 195 2.0 3.0 0.00 0.00 0.00 35 1016.6
20160625003504 80 236 1.0 3.0 0.00 0.00 0.00 35 1016.5
20160625003004 80 301 1.0 5.0 0.00 0.00 0.00 36 1016.6
20160625002504 80 310 1.0 3.0 0.00 0.00 0.00 37 1016.6
20160625002004 80 267 2.0 3.0 0.00 0.00 0.00 36 1016.4
20160625001504 80 353 4.0 7.0 0.00 0.00 0.00 36 1016.3
20160625001005 80 23 3.0 5.0 0.00 0.00 0.00 36 1016.3
20160625000505 80 42 0.0 7.0 0.00 0.00 0.00 35 1016.6
20160625000005 80 31 0.0 5.0 0.00 0.00 0.00 35 1016.6
20160624235504 80 18 2.0 9.0 0.00 0.00 0.00 35 1016.7
20160624235004 80 3 5.0 9.0 0.00 0.00 0.00 34 1016.9
20160624234505 81 358 3.0 16.0 0.00 0.00 0.00 34 1017.3
20160624234004 81 275 6.0 20.0 0.00 0.00 0.00 34 1017.5
20160624233504 82 303 6.0 12.0 0.00 0.00 0.00 34 1017.8
20160624233005 82 304 4.0 12.0 0.00 0.00 0.00 35 1017.1
20160624232505 83 236 2.0 6.0 0.00 0.00 0.00 34 1017.2
20160624232004 83 156 1.0 5.0 0.00 0.00 0.00 35 1017.2
20160624231504 83 192 0.0 5.0 0.00 0.00 0.00 34 1017.2
20160624231005 83 223 2.0 6.0 0.00 0.00 0.00 34 1016.9
20160624230505 83 184 3.0 7.0 0.00 0.00 0.00 33 1016.8
20160624230004 84 179 3.0 7.0 0.00 0.00 0.00 34 1016.5
20160624225504 84 173 3.0 7.0 0.00 0.00 0.00 32 1016.2
20160624225004 84 191 4.0 12.0 0.00 0.00 0.00 32 1016.2
20160624224504 85 208 4.0 13.0 0.00 0.00 0.00 31 1016.4
20160624224004 85 208 2.0 5.0 0.00 0.00 0.00 32 1016.1
20160624223504 86 164 5.0 13.0 0.00 0.00 0.00 31 1016.1
20160624223004 86 197 4.0 10.0 0.00 0.00 0.00 31 1016.4
20160624222504 87 165 4.0 12.0 0.00 0.00 0.00 30 1016.4
20160624222005 88 160 2.0 10.0 0.00 0.00 0.00 30 1016.5
20160624221505 88 179 3.0 10.0 0.00 0.00 0.00 30 1016.5
20160624221005 89 198 2.0 14.0 0.00 0.00 0.00 29 1016.4
20160624220504 89 171 2.0 3.0 0.00 0.00 0.00 27 1016.4
20160624220004 90 197 3.0 10.0 0.00 0.00 0.00 26 1016.1
20160624215504 91 140 5.0 10.0 0.00 0.00 0.00 26 1016.2
20160624215004 91 142 2.0 9.0 0.00 0.00 0.00 26 1016.0
20160624214504 92 180 5.0 10.0 0.00 0.00 0.00 25 1015.9
20160624214005 92 127 4.0 12.0 0.00 0.00 0.00 26 1015.8
20160624213504 92 163 4.0 9.0 0.00 0.00 0.00 26 1015.8
20160624213004 92 151 6.0 10.0 0.00 0.00 0.00 26 1015.5
20160624212504 92 122 3.0 10.0 0.00 0.00 0.00 25 1015.8
20160624212004 91 168 3.0 12.0 0.00 0.00 0.00 25 1015.9
20160624211504 91 145 2.0 8.0 0.00 0.00 0.00 25 1016.1
20160624211005 91 171 3.0 8.0 0.00 0.00 0.00 26 1016.4
20160624210505 90 199 2.0 7.0 0.00 0.00 0.00 29 1016.7
20160624210004 89 181 5.0 9.0 0.00 0.00 0.00 27 1016.7
20160624205505 88 181 3.0 7.0 0.00 0.00 0.00 28 1016.7
20160624205005 88 184 1.0 3.0 0.00 0.00 0.00 29 1016.5
20160624204504 87 207 1.0 3.0 0.00 0.00 0.00 29 1016.4
20160624204004 87 165 1.0 7.0 0.00 0.00 0.00 28 1016.4
20160624203504 86 138 1.0 3.0 0.00 0.00 0.00 28 1016.4
20160624203005 86 162 2.0 6.0 0.00 0.00 0.00 28 1016.4
20160624202504 86 181 2.0 5.0 0.00 0.00 0.00 29 1016.4
20160624202004 86 165 1.0 3.0 0.00 0.00 0.00 28 1016.5
20160624201504 86 171 2.0 7.0 0.00 0.00 0.00 28 1016.4
20160624201005 86 182 3.0 7.0 0.00 0.00 0.00 28 1016.3
20160624200504 86 172 2.0 9.0 0.00 0.00 0.00 27 1016.7
20160624200004 86 161 3.0 9.0 0.00 0.00 0.00 28 1016.9
20160624195504 87 184 6.0 12.0 0.00 0.00 0.00 27 1016.9
20160624195005 87 163 2.0 7.0 0.00 0.00 0.00 26 1016.9
20160624194504 87 190 2.0 6.0 0.00 0.00 0.00 26 1016.7
20160624194004 87 120 5.0 12.0 0.00 0.00 0.00 24 1016.6
20160624193504 88 109 2.0 5.0 0.00 0.00 0.00 24 1016.2
20160624193004 88 115 3.0 8.0 0.00 0.00 0.00 22 1016.3
20160624192504 88 103 4.0 9.0 0.00 0.00 0.00 23 1016.3
20160624192004 88 83 1.0 5.0 0.00 0.00 0.00 24 1016.4
20160624191505 88 15 1.0 7.0 0.00 0.00 0.00 24 1016.5
20160624191004 88 100 2.0 9.0 0.00 0.00 0.00 23 1016.6
20160624190504 89 129 2.0 8.0 0.00 0.00 0.00 24 1016.8
20160624190004 89 139 1.0 3.0 0.00 0.00 0.00 24 1016.5
20160624185504 89 115 2.0 7.0 0.00 0.00 0.00 24 1016.4
20160624185005 90 100 3.0 9.0 0.00 0.00 0.00 23 1016.6
20160624184506 90 108 1.0 7.0 0.00 0.00 0.00 24 1017.0
20160624184005 90 26 3.0 9.0 0.00 0.00 0.00 23 1017.0
20160624183505 91 24 3.0 8.0 0.00 0.00 0.00 24 1016.9
20160624183005 91 20 2.0 5.0 0.00 0.00 0.00 23 1017.1
20160624182505 92 5 3.0 9.0 0.00 0.00 0.00 22 1017.6
20160624182005 93 14 2.0 8.0 0.00 0.00 0.00 22 1017.7
20160624181506 94 21 3.0 7.0 0.00 0.00 0.00 22 1017.7
20160624181005 94 3 2.0 5.0 0.00 0.00 0.00 22 1017.7
20160624180505 95 17 0.0 3.0 0.00 0.00 0.00 21 1017.6
20160624180004 95 286 1.0 3.0 0.00 0.00 0.00 21 1017.5
20160624175506 96 65 2.0 3.0 0.00 0.00 0.00 22 1017.4
20160624175006 96 76 0.0 3.0 0.00 0.00 0.00 20 1017.5
20160624174018 95 130 2.0 8.0 0.00 0.00 0.00 20 1017.4
20160624173506 95 111 5.0 12.0 0.00 0.00 0.00 21 1017.3
20160624173006 94 115 1.0 8.0 0.00 0.00 0.00 21 1017.3
20160624172505 94 120 2.0 7.0 0.00 0.00 0.00 21 1017.2
20160624171506 94 145 1.0 3.0 0.00 0.00 0.00 24 1017.5
20160624171006 93 113 1.0 3.0 0.00 0.00 0.00 27 1017.5
20160624170505 92 92 1.0 3.0 0.00 0.00 0.00 27 1017.6
20160624170006 92 119 2.0 7.0 0.00 0.00 0.00 27 1017.7
20160624165505 92 133 1.0 3.0 0.00 0.00 0.00 26 1017.7
20160624165005 91 114 3.0 7.0 0.00 0.00 0.00 27 1017.9
20160624164506 90 137 1.0 7.0 0.00 0.00 0.00 29 1017.9
20160624164006 90 110 2.0 7.0 0.00 0.00 0.00 28 1018.0
20160624163504 90 143 1.0 3.0 0.00 0.00 0.00 30 1017.8
20160624163006 89 102 2.0 6.0 0.00 0.00 0.00 28 1018.0
20160624162505 89 180 1.0 3.0 0.00 0.00 0.00 31 1018.0
20160624162006 89 131 2.0 6.0 0.00 0.00 0.00 29 1018.0
20160624161504 88 105 2.0 3.0 0.00 0.00 0.00 30 1018.2
20160624161005 88 119 1.0 3.0 0.00 0.00 0.00 32 1018.2
20160624160505 87 182 1.0 3.0 0.00 0.00 0.00 31 1018.3
20160624160005 87 166 1.0 3.0 0.00 0.00 0.00 32 1018.0
20160624155505 86 175 1.0 2.0 0.00 0.00 0.00 32 1018.0
20160624155006 85 167 1.0 3.0 0.00 0.00 0.00 34 1018.0
20160624154505 85 120 1.0 6.0 0.00 0.00 0.00 36 1018.0
20160624154007 84 242 0.0 2.0 0.00 0.00 0.00 36 1018.3
20160624153506 83 245 2.0 3.0 0.00 0.00 0.00 39 1018.3
20160624153015 82 202 1.0 3.0 0.00 0.00 0.00 40 1018.3
20160624152505 81 205 1.0 2.0 0.00 0.00 0.00 42 1018.3
20160624151505 78 209 2.0 3.0 0.00 0.00 0.00 44 1018.3
20160624151005 77 192 0.0 2.0 0.00 0.00 0.00 46 1018.3
20160624150505 76 192 0.0 3.0 0.00 0.00 0.00 47 1018.4
20160624150005 75 192 0.0 2.0 0.00 0.00 0.00 48 1018.6
20160624145505 74 192 1.0 2.0 0.00 0.00 0.00 50 1018.6
20160624144506 72 176 1.0 2.0 0.00 0.00 0.00 51 1018.7
20160624144006 71 176 0.0 2.0 0.00 0.00 0.00 53 1018.7
20160624141004 68 121 1.0 2.0 0.00 0.00 0.00 58 1018.9
20160624140504 67 121 1.0 2.0 0.00 0.00 0.00 60 1019.0
20160624140004 67 115 0.0 2.0 0.00 0.00 0.00 61 1018.5
20160624135505 66 115 1.0 3.0 0.00 0.00 0.00 61 1018.5
20160624135004 65 109 1.0 2.0 0.00 0.00 0.00 62 1018.6
20160624134504 65 109 0.0 2.0 0.00 0.00 0.00 63 1018.5
20160624134004 64 109 2.0 3.0 0.00 0.00 0.00 63 1018.6
20160624133504 64 109 1.0 2.0 0.00 0.00 0.00 66 1018.6
20160624133005 63 109 0.0 2.0 0.00 0.00 0.00 67 1018.5
20160624132504 63 109 0.0 3.0 0.00 0.00 0.00 68 1018.6
20160624132004 62 163 1.0 2.0 0.00 0.00 0.00 69 1018.5
20160624131504 61 166 0.0 1.0 0.00 0.00 0.00 70 1018.6
20160624131005 61 166 0.0 0.0 0.00 0.00 0.00 71 1018.5
20160624130504 61 166 0.0 3.0 0.00 0.00 0.00 72 1018.5
20160624130004 60 121 1.0 3.0 0.00 0.00 0.00 73 1018.5
20160624125504 60 109 1.0 2.0 0.00 0.00 0.00 75 1018.6
20160624125005 59 109 0.0 3.0 0.00 0.00 0.00 76 1018.5
20160624124504 59 122 1.0 3.0 0.00 0.00 0.00 78 1018.6
20160624124005 59 154 0.0 2.0 0.00 0.00 0.00 80 1018.6
20160624123504 58 219 0.0 0.0 0.00 0.00 0.00 80 1018.6
20160624123004 58 218 0.0 0.0 0.00 0.00 0.00 79 1018.6
20160624122504 58 218 0.0 0.0 0.00 0.00 0.00 79 1018.5
20160624122005 58 218 0.0 0.0 0.00 0.00 0.00 78 1018.5
20160624121504 58 218 0.0 0.0 0.00 0.00 0.00 78 1018.4
20160624121004 58 219 0.0 1.0 0.00 0.00 0.00 78 1018.5
20160624120504 58 218 0.0 0.0 0.00 0.00 0.00 78 1018.7
20160624120004 58 218 0.0 0.0 0.00 0.00 0.00 78 1018.7
20160624115505 59 218 0.0 0.0 0.00 0.00 0.00 77 1018.7
20160624115005 59 218 0.0 0.0 0.00 0.00 0.00 77 1018.7
20160624114505 59 218 0.0 0.0 0.00 0.00 0.00 77 1018.8
20160624114005 59 218 0.0 1.0 0.00 0.00 0.00 76 1018.8
20160624113504 59 218 0.0 1.0 0.00 0.00 0.00 76 1018.8
20160624113004 60 219 0.0 0.0 0.00 0.00 0.00 75 1018.7
20160624112504 60 219 0.0 0.0 0.00 0.00 0.00 74 1018.6
20160624112004 60 219 0.0 0.0 0.00 0.00 0.00 74 1018.5
20160624111504 60 219 0.0 0.0 0.00 0.00 0.00 74 1018.5
20160624111004 60 219 0.0 0.0 0.00 0.00 0.00 74 1018.6
20160624110504 61 219 0.0 0.0 0.00 0.00 0.00 74 1018.5
20160624110004 61 219 0.0 0.0 0.00 0.00 0.00 72 1018.3
20160624105504 61 219 0.0 0.0 0.00 0.00 0.00 72 1018.4
20160624105005 61 219 0.0 0.0 0.00 0.00 0.00 72 1018.3
20160624104504 61 219 0.0 0.0 0.00 0.00 0.00 71 1018.4
20160624104004 62 219 0.0 0.0 0.00 0.00 0.00 70 1018.3
20160624103505 62 219 0.0 0.0 0.00 0.00 0.00 70 1018.3
20160624103005 62 219 0.0 1.0 0.00 0.00 0.00 69 1018.3
20160624102505 62 219 0.0 0.0 0.00 0.00 0.00 69 1018.2
20160624102005 63 219 0.0 0.0 0.00 0.00 0.00 69 1018.4
20160624101504 63 219 0.0 0.0 0.00 0.00 0.00 69 1018.4
20160624101005 63 219 0.0 0.0 0.00 0.00 0.00 68 1018.4
20160624100504 63 219 0.0 1.0 0.00 0.00 0.00 68 1018.7
20160624100005 63 219 1.0 2.0 0.00 0.00 0.00 68 1018.6
20160624095504 64 219 0.0 2.0 0.00 0.00 0.00 68 1018.7
20160624095004 64 219 0.0 1.0 0.00 0.00 0.00 68 1018.8
20160624094504 64 219 0.0 1.0 0.00 0.00 0.00 68 1018.9
20160624094004 64 219 0.0 0.0 0.00 0.00 0.00 68 1019.1
20160624093504 64 219 0.0 1.0 0.00 0.00 0.00 68 1019.2
20160624093005 64 219 0.0 1.0 0.00 0.00 0.00 68 1019.2
20160624092504 64 219 0.0 1.0 0.00 0.00 0.00 68 1019.4
20160624092005 64 219 0.0 1.0 0.00 0.00 0.00 68 1019.5
20160624091004 64 229 1.0 3.0 0.00 0.00 0.00 68 1019.7
20160624090504 64 112 1.0 2.0 0.00 0.00 0.00 67 1019.6
20160624090004 64 117 2.0 6.0 0.00 0.00 0.00 67 1019.6
20160624085504 65 122 1.0 3.0 0.00 0.00 0.00 65 1019.5
20160624085005 65 178 0.0 0.0 0.00 0.00 0.00 63 1019.6
20160624084505 65 178 0.0 0.0 0.00 0.00 0.00 62 1019.7
20160624084005 65 178 0.0 0.0 0.00 0.00 0.00 62 1019.9
20160624083505 65 178 0.0 0.0 0.00 0.00 0.00 62 1020.3
20160624083004 65 178 0.0 0.0 0.00 0.00 0.00 63 1020.4
20160624082504 65 178 0.0 0.0 0.00 0.00 0.00 62 1020.7
20160624082004 65 178 0.0 0.0 0.00 0.00 0.00 61 1020.7
20160624081505 65 194 0.0 0.0 0.00 0.00 0.00 61 1020.8
20160624081005 65 194 0.0 0.0 0.00 0.00 0.00 61 1021.0
20160624080504 65 194 0.0 3.0 0.00 0.00 0.00 61 1021.1
20160624080005 65 236 0.0 0.0 0.00 0.00 0.00 62 1021.4
20160624075504 65 277 0.0 0.0 0.00 0.00 0.00 62 1021.5
20160624075004 66 277 0.0 0.0 0.00 0.00 0.00 61 1021.5
20160624074504 66 277 0.0 0.0 0.00 0.00 0.00 61 1021.2
20160624074004 66 277 0.0 0.0 0.00 0.00 0.00 60 1021.2
20160624073504 66 277 0.0 0.0 0.00 0.00 0.00 60 1021.2
20160624073004 66 277 0.0 0.0 0.00 0.00 0.00 59 1021.2
20160624072504 67 277 0.0 0.0 0.00 0.00 0.00 58 1021.3
20160624072005 67 277 0.0 0.0 0.00 0.00 0.00 58 1021.4
20160624071505 67 277 0.0 0.0 0.00 0.00 0.00 58 1021.3
20160624071005 67 277 0.0 0.0 0.00 0.00 0.00 57 1021.7
20160624070505 67 277 0.0 0.0 0.00 0.00 0.00 58 1021.7
20160624070004 67 277 0.0 0.0 0.00 0.00 0.00 58 1021.8
20160624065504 67 277 0.0 1.0 0.00 0.00 0.00 58 1021.7